187P/LINEAR (1999)

Japanese version
Home page
Total 6,336 html files since Dec. 4, 1995
Updated on May 25, 2008

---------------------------------------------------------------------

* Profile

Designation 187P/1999 J5
Discovery Date May 12, 1999
Magnitude 19.0 mag
Discoverer Lincoln Laboratory Near-Earth Asteroid Research project

* Orbital Elements

                    Epoch = 1999 May  22.0 TT
     T = 1999 May  12.1310 TT         Peri. = 132.1799
     e = 0.169470                     Node  = 112.0187  2000.0
     q = 3.712711 AU                  Incl. =  13.7164
       a =  4.470289 AU    n = 0.1042799    P =   9.45 years

* Finding Charts

* Magnitudes Graph

        m1 = -13.0 + 5 log d + 50.0 log r

---------------------------------------------------------------------

The orbital elements are calculated by G. V. Williams and printed on IAUC 8827.
The charts are made with StellaNavigator Ver.2.0 for Windows (AstroArts / ASCII).
The magnitudes graphs are made with Comet for Windows.

---------------------------------------------------------------------

Copyright(C) 1995-2008 Seiichi Yoshida (comet@aerith.net). All rights reserved.